Weather History for KFAM - December, 2012

Change the Weather History Date:

Tuesday, December 18, 2012

  Actual Average (KCGI) Record (KCGI)
Temperature  
Mean Temperature 42 °F 35 °F  
Max Temperature 55 °F 44 °F 65 °F (1962)
Min Temperature 28 °F 26 °F 5 °F (1964)
Degree Days  
Heating Degree Days 24 30  
Month to date heating degree days 497  
Since 1 July heating degree days 1348  
Cooling Degree Days 0 0  
Month to date cooling degree days 0  
Year to date cooling degree days 1453  
Moisture  
Dew Point 33 °F    
Average Humidity 75    
Maximum Humidity 100    
Minimum Humidity 44    
Precipitation  
Precipitation 0.00 in 0.13 in 1.98 in (2002)
Month to date precipitation 2.57  
Year to date precipitation 45.13  
Sea Level Pressure  
Sea Level Pressure 29.82 in    
Wind  
Wind Speed 6 mph (South)    
Max Wind Speed 20 mph    
Max Gust Speed 24 mph    
Visibility 8 miles    
Events      
T = Trace of Precipitation, MM = Missing Value Source: NWS Daily Summary

Daily Weather History Graph

Daily Weather History Graph

Search for Another Location

Airport or City:

Trip Planner

Search our weather history database for the weather conditions in past years. The results will help you decide how hot, cold, wet, or windy it might be!

Date:

Astronomy

Dec. 18, 2012 Rise Set
Actual Time 7:12 AM CST 4:45 PM CST
Civil Twilight 6:42 AM CST 5:14 PM CST
Nautical Twilight 6:09 AM CST 5:47 PM CST
Astronomical Twilight 5:37 AM CST 6:19 PM CST
Moon 10:57 AM CST (12/18) 11:04 PM CST (12/18)
Length of Visible Light 10h 32m
Length of Day
9h 33m
Waxing Crescent, 35% of the Moon is Illuminated
Dec 18
Waxing Crescent
Dec 19
First Quarter
Dec 28
Full
Jan 4
Last Quarter
Jan 11
New

Hourly Weather History & Observations

Time (CST) Temp. Windchill Dew Point Humidity Pressure Visibility Wind Dir Wind Speed Gust Speed Precip Events Conditions
12:15 AM 35.6 °F 32.8 °F 30.2 °F 81% 29.83 in 10.0 mi WSW 3.5 mph - N/A   Mostly Cloudy
12:35 AM 35.6 °F 31.7 °F 30.2 °F 81% 29.83 in 10.0 mi WSW 4.6 mph - N/A   Scattered Clouds
12:55 AM 35.6 °F 32.8 °F 30.2 °F 81% 29.83 in 10.0 mi SW 3.5 mph - N/A   Clear
1:15 AM 35.6 °F 32.8 °F 30.2 °F 81% 29.82 in 8.0 mi South 3.5 mph - N/A   Clear
1:35 AM 33.8 °F 30.8 °F 30.2 °F 87% 29.82 in 7.0 mi South 3.5 mph - N/A   Clear
1:55 AM 33.8 °F 30.8 °F 30.2 °F 87% 29.83 in 7.0 mi South 3.5 mph - N/A   Clear
2:15 AM 32.0 °F - 30.2 °F 93% 29.82 in 5.0 mi Calm Calm - N/A   Clear
2:35 AM 32.0 °F 28.7 °F 28.4 °F 87% 29.82 in 4.0 mi South 3.5 mph - N/A   Clear
2:55 AM 28.4 °F - 26.6 °F 93% 29.83 in 2.5 mi Calm Calm - N/A   Clear
3:15 AM 30.2 °F - 28.4 °F 93% 29.83 in 4.0 mi Calm Calm - N/A   Clear
3:35 AM 30.2 °F 26.7 °F 28.4 °F 93% 29.83 in 4.0 mi SSE 3.5 mph - N/A   Clear
3:55 AM 30.2 °F 26.7 °F 28.4 °F 93% 29.83 in 4.0 mi SSE 3.5 mph - N/A   Clear
4:15 AM 30.2 °F 26.7 °F 28.4 °F 93% 29.82 in 3.0 mi SSE 3.5 mph - N/A   Clear
4:35 AM 30.2 °F 26.7 °F 28.4 °F 93% 29.82 in 4.0 mi South 3.5 mph - N/A   Clear
4:55 AM 30.2 °F 25.4 °F 28.4 °F 93% 29.81 in 4.0 mi South 4.6 mph - N/A   Clear
5:15 AM 30.2 °F 25.4 °F 28.4 °F 93% 29.82 in 4.0 mi South 4.6 mph - N/A   Clear
5:55 AM 28.4 °F 22.2 °F 28.4 °F 100% 29.81 in 4.0 mi SSE 5.8 mph - N/A   Clear
6:15 AM 30.2 °F 24.3 °F 28.4 °F 93% 29.82 in 4.0 mi South 5.8 mph - N/A   Clear
6:35 AM 30.2 °F 24.3 °F 28.4 °F 93% 29.82 in 5.0 mi SSE 5.8 mph - N/A   Clear
6:55 AM 30.2 °F - 28.4 °F 93% 29.81 in 4.0 mi Calm Calm - N/A   Clear
7:15 AM 30.2 °F - 28.4 °F 93% 29.82 in 3.0 mi Calm Calm - N/A   Clear
7:35 AM 30.2 °F 21.9 °F 28.4 °F 93% 29.81 in 3.0 mi South 9.2 mph - N/A   Clear
7:55 AM 32.0 °F 23.6 °F 30.2 °F 93% 29.82 in 3.0 mi SSE 10.4 mph - N/A   Clear
8:15 AM 32.0 °F 26.4 °F 30.2 °F 93% 29.82 in 3.0 mi SSE 5.8 mph - N/A   Clear
8:35 AM 33.8 °F 26.4 °F 30.2 °F 87% 29.82 in 3.0 mi SSE 9.2 mph - N/A   Clear
8:55 AM 33.8 °F 27.0 °F 32.0 °F 93% 29.82 in 5.0 mi South 8.1 mph - N/A   Clear
9:15 AM 35.6 °F 26.2 °F 33.8 °F 93% 29.83 in 5.0 mi South 15.0 mph - N/A   Clear
9:35 AM 37.4 °F 28.9 °F 33.8 °F 87% 29.83 in 6.0 mi South 13.8 mph 19.6 mph N/A   Clear
9:55 AM 37.4 °F 27.8 °F 33.8 °F 87% 29.83 in 7.0 mi South 17.3 mph 20.7 mph N/A   Clear
10:15 AM 39.2 °F 31.2 °F 35.6 °F 87% 29.83 in 8.0 mi South 13.8 mph - N/A   Clear
10:35 AM 42.8 °F 35.1 °F 35.6 °F 76% 29.82 in 10.0 mi South 16.1 mph 21.9 mph N/A   Clear
10:55 AM 44.6 °F 38.1 °F 35.6 °F 71% 29.81 in 10.0 mi South 13.8 mph - N/A   Clear
11:15 AM 46.4 °F 39.5 °F 35.6 °F 66% 29.79 in 10.0 mi South 17.3 mph 24.2 mph N/A   Clear
11:35 AM 46.4 °F 39.0 °F 37.4 °F 71% 29.78 in 10.0 mi South 19.6 mph - N/A   Clear
12:15 PM 48.2 °F - 37.4 °F 66% 29.76 in 10.0 mi South 17.3 mph - N/A   Clear
12:35 PM 50.0 °F - 37.4 °F 62% 29.75 in 10.0 mi South 16.1 mph - N/A   Clear
12:55 PM 51.8 °F - 37.4 °F 58% 29.75 in 10.0 mi South 13.8 mph - N/A   Clear
1:15 PM 53.6 °F - 37.4 °F 54% 29.74 in 10.0 mi South 13.8 mph - N/A   Clear
1:35 PM 53.6 °F - 35.6 °F 51% 29.75 in 10.0 mi SSW 15.0 mph 21.9 mph N/A   Clear
1:55 PM 55.4 °F - 35.6 °F 47% 29.74 in 10.0 mi SSW 12.7 mph 21.9 mph N/A   Clear
2:15 PM 55.4 °F - 35.6 °F 47% 29.74 in 10.0 mi SSW 15.0 mph 20.7 mph N/A   Clear
2:35 PM 55.4 °F - 35.6 °F 47% 29.74 in 10.0 mi SSW 13.8 mph - N/A   Clear
2:55 PM 55.4 °F - 33.8 °F 44% 29.75 in 10.0 mi SSW 11.5 mph - N/A   Clear
3:15 PM 55.4 °F - 35.6 °F 47% 29.75 in 10.0 mi SSW 15.0 mph - N/A   Clear
3:35 PM 55.4 °F - 35.6 °F 47% 29.75 in 10.0 mi SSW 17.3 mph 23.0 mph N/A   Clear
3:55 PM 55.4 °F - 35.6 °F 47% 29.76 in 10.0 mi SW 9.2 mph - N/A   Clear
4:15 PM 53.6 °F - 35.6 °F 51% 29.76 in 10.0 mi SSW 13.8 mph - N/A   Clear
4:35 PM 53.6 °F - 35.6 °F 51% 29.76 in 10.0 mi SW 10.4 mph - N/A   Clear
4:55 PM 51.8 °F - 35.6 °F 54% 29.77 in 10.0 mi SW 8.1 mph - N/A   Clear
5:15 PM 50.0 °F - 35.6 °F 58% 29.78 in 10.0 mi WSW 6.9 mph - N/A   Clear
5:35 PM 48.2 °F - 35.6 °F 62% 29.79 in 10.0 mi SW 5.8 mph - N/A   Clear
5:55 PM 48.2 °F - 35.6 °F 62% 29.79 in 10.0 mi SSW 4.6 mph - N/A   Clear
6:15 PM 50.0 °F - 35.6 °F 58% 29.81 in 10.0 mi SSW 4.6 mph - N/A   Clear
6:35 PM 48.2 °F - 35.6 °F 62% 29.82 in 10.0 mi Calm Calm - N/A   Clear
6:55 PM 48.2 °F - 35.6 °F 62% 29.82 in 10.0 mi Calm Calm - N/A   Clear
7:15 PM 46.4 °F - 35.6 °F 66% 29.83 in 10.0 mi Calm Calm - N/A   Clear
7:35 PM 46.4 °F - 35.6 °F 66% 29.84 in 10.0 mi Calm Calm - N/A   Clear
7:55 PM 46.4 °F - 35.6 °F 66% 29.85 in 10.0 mi Calm Calm - N/A   Clear
8:15 PM 46.4 °F - 35.6 °F 66% 29.86 in 10.0 mi Calm Calm - N/A   Clear
8:35 PM 44.6 °F - 35.6 °F 71% 29.87 in 10.0 mi Calm Calm - N/A   Clear
8:55 PM 44.6 °F - 33.8 °F 66% 29.87 in 10.0 mi Calm Calm - N/A   Clear
9:15 PM 44.6 °F - 35.6 °F 71% 29.87 in 10.0 mi Calm Calm - N/A   Clear
9:35 PM 44.6 °F - 35.6 °F 71% 29.87 in 10.0 mi Calm Calm - N/A   Clear
9:55 PM 39.2 °F - 30.2 °F 70% 29.88 in 10.0 mi Calm Calm - N/A   Clear
10:15 PM 37.4 °F - 33.8 °F 87% 29.89 in 10.0 mi Calm Calm - N/A   Clear
10:35 PM 35.6 °F - 30.2 °F 81% 29.89 in 10.0 mi Calm Calm - N/A   Clear
10:55 PM 35.6 °F - 32.0 °F 87% 29.89 in 10.0 mi Calm Calm - N/A   Clear
11:15 PM 35.6 °F - 32.0 °F 87% 29.89 in 10.0 mi Calm Calm - N/A   Clear
11:35 PM 33.8 °F - 28.4 °F 81% 29.90 in 9.0 mi Calm Calm - N/A   Clear
11:55 PM 35.6 °F - 30.2 °F 81% 29.91 in 8.0 mi Calm Calm - N/A   Clear